Location: Vancouver
(49.2500°N, 123.1330°W)
Time: 15:25:21
(UTC-07:00)

Iridium 21 - Visible Passes

Search period start: 20 August 2014 00:00
Search period end: 30 August 2014 00:00
Orbit: 776 x 779 km, 86.4° (Epoch: 20 August)

Date Brightness Start Highest point End Pass type
(mag) Time Alt. Az. Time Alt. Az. Time Alt. Az.
20 Aug 7.6 00:41:33 15° W 00:43:44 19° WNW 00:47:21 10° NNW visible
20 Aug 6.1 22:27:33 33° ESE 22:29:02 41° E 22:33:54 10° NNE visible
21 Aug 7.0 00:08:00 24° WSW 00:09:52 30° WNW 00:14:28 10° NNW visible
21 Aug 6.7 21:53:59 20° ESE 21:55:44 25° E 21:59:53 10° NNE visible
21 Aug 6.2 23:34:26 36° SW 23:36:08 50° W 23:41:14 10° N visible
22 Aug 7.3 21:20:24 12° E 21:22:34 15° ENE 21:25:21 10° NE visible
22 Aug 5.5 23:00:52 45° S 23:02:32 86° W 23:07:47 10° N visible
23 Aug 8.0 00:41:33 10° W 00:44:07 14° WNW 00:46:42 10° NW visible
23 Aug 5.6 22:27:16 37° SE 22:29:03 56° E 22:34:10 10° NNE visible
24 Aug 7.5 00:07:44 17° WSW 00:10:10 22° WNW 00:14:14 10° NNW visible
24 Aug 6.3 21:53:40 25° ESE 21:55:41 33° E 22:00:19 10° NNE visible
24 Aug 6.7 23:34:07 25° SW 23:36:21 37° WNW 23:41:11 10° N visible
25 Aug 6.9 21:20:03 15° ESE 21:22:27 20° ENE 21:26:09 10° NNE visible
25 Aug 5.9 23:00:30 34° SSW 23:02:40 62° W 23:07:52 10° N visible
26 Aug 7.4 20:47:32 10° E 20:49:19 12° ENE 20:51:07 10° NE visible
26 Aug 5.4 22:26:52 35° S 22:29:07 78° E 22:34:21 10° N visible
27 Aug 7.9 00:07:19 10° WSW 00:10:31 17° WNW 00:13:49 10° NNW visible
27 Aug 5.9 21:53:12 27° SE 21:55:41 45° E 22:00:38 10° NNE visible
27 Aug 7.3 23:33:39 17° WSW 23:36:37 27° WNW 23:41:02 10° NNW visible
28 Aug 6.5 21:19:31 17° SE 21:22:22 27° E 21:26:41 10° NNE visible
28 Aug 6.4 22:59:58 23° SW 23:02:51 45° W 23:07:52 10° N visible
29 Aug 7.1 20:46:01 10° ESE 20:49:10 16° ENE 20:52:19 10° NE visible
29 Aug 5.6 22:26:16 27° SSW 22:29:13 77° W 22:34:27 10° N visible
